TimeHST,TemperatureF,Dew PointF,Humidity,Sea Level PressureIn,VisibilityMPH,Wind Direction,Wind SpeedMPH,Gust SpeedMPH,PrecipitationIn,Events,Conditions,WindDirDegrees,DateUTC
12:22 AM,73.4,68.0,83,30.04,10.0,SSW,9.2,-,N/A,,Overcast,210,2013-03-22 10:22:00
12:53 AM,73.0,68.0,84,30.02,10.0,SW,13.8,-,N/A,,Scattered Clouds,230,2013-03-22 10:53:00
1:53 AM,73.0,66.2,79,29.99,10.0,SSW,6.9,17.3,N/A,,Mostly Cloudy,200,2013-03-22 11:53:00
2:10 AM,73.4,68.0,83,30.00,5.0,WSW,6.9,18.4,0.02,Rain,Rain,250,2013-03-22 12:10:00
2:23 AM,71.6,68.0,88,30.00,1.8,WSW,10.4,-,0.16,Rain,Heavy Rain,240,2013-03-22 12:23:00
2:36 AM,71.6,68.0,88,29.99,4.0,SSW,4.6,-,0.48,Rain,Light Rain,200,2013-03-22 12:36:00
2:43 AM,71.6,68.0,88,29.99,10.0,South,4.6,-,0.48,Rain,Light Rain,180,2013-03-22 12:43:00
2:53 AM,71.6,66.6,84,29.98,10.0,SSW,4.6,-,0.48,,Overcast,200,2013-03-22 12:53:00
3:11 AM,71.6,68.0,88,29.99,2.0,West,12.7,17.3,0.11,Rain,Heavy Rain,260,2013-03-22 13:11:00
3:18 AM,71.6,68.0,88,29.98,1.0,SW,15.0,-,0.41,Rain,Heavy Rain,220,2013-03-22 13:18:00
3:27 AM,71.6,68.0,88,29.98,2.0,SSW,5.8,-,0.59,Rain,Heavy Rain,210,2013-03-22 13:27:00
3:36 AM,71.6,68.0,88,29.98,9.0,SW,3.5,-,0.60,Rain,Light Rain,220,2013-03-22 13:36:00
3:46 AM,71.6,68.0,88,29.97,10.0,SSW,4.6,-,0.60,,Overcast,200,2013-03-22 13:46:00
3:53 AM,70.5,68.0,92,29.97,10.0,South,4.6,-,0.60,Rain,Light Rain,190,2013-03-22 13:53:00
4:53 AM,68.0,67.1,97,29.98,10.0,WNW,5.8,-,0.11,Rain,Light Rain,290,2013-03-22 14:53:00
5:53 AM,66.9,66.2,98,29.99,10.0,NW,3.5,-,0.00,,Overcast,320,2013-03-22 15:53:00
6:11 AM,68.0,68.0,100,30.00,10.0,Calm,Calm,-,N/A,,Overcast,0,2013-03-22 16:11:00
6:18 AM,68.0,68.0,100,30.01,10.0,ENE,4.6,-,0.00,Rain,Light Rain,70,2013-03-22 16:18:00
6:42 AM,68.0,68.0,100,30.01,9.0,East,6.9,-,0.00,Rain,Light Rain,80,2013-03-22 16:42:00
6:53 AM,68.7,68.2,98,30.01,9.0,NE,8.1,-,0.00,Rain,Light Rain,50,2013-03-22 16:53:00
6:59 AM,69.8,68.0,94,30.01,10.0,ENE,5.8,-,0.00,,Overcast,60,2013-03-22 16:59:00
7:36 AM,69.8,68.0,94,30.02,10.0,NE,4.6,-,0.00,,Overcast,40,2013-03-22 17:36:00
7:53 AM,69.1,68.2,97,30.02,10.0,Calm,Calm,-,0.00,,Overcast,0,2013-03-22 17:53:00
8:07 AM,69.8,68.0,94,30.03,10.0,Calm,Calm,-,N/A,,Overcast,0,2013-03-22 18:07:00
8:53 AM,69.1,68.0,96,30.04,10.0,WNW,3.5,-,0.00,,Overcast,290,2013-03-22 18:53:00
9:24 AM,71.6,68.0,88,30.04,10.0,East,3.5,-,N/A,,Mostly Cloudy,80,2013-03-22 19:24:00
9:32 AM,71.6,68.0,88,30.04,10.0,ESE,4.6,-,N/A,,Mostly Cloudy,110,2013-03-22 19:32:00
9:53 AM,71.1,68.0,90,30.03,10.0,East,4.6,-,N/A,,Mostly Cloudy,90,2013-03-22 19:53:00
10:53 AM,73.9,66.9,79,30.02,10.0,ESE,6.9,-,N/A,,Mostly Cloudy,110,2013-03-22 20:53:00
11:53 AM,77.0,69.1,76,30.01,10.0,East,8.1,-,N/A,,Mostly Cloudy,80,2013-03-22 21:53:00
12:53 PM,75.0,66.9,76,29.99,10.0,ESE,6.9,-,N/A,,Overcast,110,2013-03-22 22:53:00
1:04 PM,73.4,66.2,78,29.99,10.0,East,5.8,-,N/A,,Overcast,100,2013-03-22 23:04:00
1:53 PM,71.1,66.9,87,29.97,3.0,NE,10.4,-,0.01,Rain,Light Rain,50,2013-03-22 23:53:00
2:24 PM,71.6,68.0,88,29.96,3.0,NNE,10.4,-,0.00,Rain,Light Rain,20,2013-03-23 00:24:00
2:53 PM,72.0,66.9,84,29.96,3.0,NNE,5.8,-,0.00,Rain,Light Rain,20,2013-03-23 00:53:00
3:53 PM,72.0,66.0,81,29.96,10.0,NE,10.4,-,0.00,,Overcast,40,2013-03-23 01:53:00
4:53 PM,75.0,64.0,69,29.95,10.0,North,9.2,-,0.00,,Overcast,360,2013-03-23 02:53:00
5:53 PM,73.0,63.0,71,29.96,10.0,North,9.2,-,N/A,,Overcast,10,2013-03-23 03:53:00
6:53 PM,70.0,63.0,78,29.98,10.0,North,8.1,-,N/A,,Overcast,360,2013-03-23 04:53:00
7:53 PM,70.0,64.0,81,30.00,10.0,North,8.1,-,N/A,,Overcast,360,2013-03-23 05:53:00
8:53 PM,69.1,64.0,84,30.01,10.0,North,10.4,-,N/A,,Overcast,360,2013-03-23 06:53:00
9:53 PM,68.0,64.0,87,30.02,10.0,North,6.9,-,N/A,,Mostly Cloudy,350,2013-03-23 07:53:00
10:35 PM,69.8,64.4,83,30.03,10.0,North,6.9,-,N/A,,Mostly Cloudy,360,2013-03-23 08:35:00
10:53 PM,69.1,64.0,84,30.03,10.0,North,8.1,-,N/A,,Overcast,10,2013-03-23 08:53:00
11:33 PM,66.2,64.4,94,30.04,10.0,North,8.1,-,0.02,,Overcast,10,2013-03-23 09:33:00
11:53 PM,66.9,64.0,90,30.03,10.0,North,5.8,-,0.02,Rain,Light Rain,10,2013-03-23 09:53:00